TimeCST,TemperatureF,Dew PointF,Humidity,Sea Level PressureIn,VisibilityMPH,Wind Direction,Wind SpeedMPH,Gust SpeedMPH,PrecipitationIn,Events,Conditions,WindDirDegrees,DateUTC
12:00 AM,62.6,59.0,88,30.27,6.2,NNE,13.8,-,N/A,,Scattered Clouds,20,2013-10-14 06:00:00
1:00 AM,62.6,60.8,94,30.27,6.2,North,9.2,-,N/A,,Mostly Cloudy,360,2013-10-14 07:00:00
2:00 AM,60.8,59.0,94,30.24,6.2,North,11.5,-,N/A,,Mostly Cloudy,360,2013-10-14 08:00:00
3:00 AM,60.8,57.2,88,30.21,6.2,North,6.9,-,N/A,,Scattered Clouds,360,2013-10-14 09:00:00
4:00 AM,60.8,59.0,94,30.24,6.2,North,11.5,-,N/A,,Mostly Cloudy,360,2013-10-14 10:00:00
5:00 AM,60.8,59.0,94,30.21,6.2,North,4.6,-,N/A,,Mostly Cloudy,360,2013-10-14 11:00:00
6:00 AM,60,58,91,29.97,25,North,6.9,,,,Overcast,0,2013-10-14 12:00:00
6:00 AM,60.8,59.0,94,30.27,6.2,North,6.9,-,N/A,,Mostly Cloudy,360,2013-10-14 12:00:00
7:00 AM,62.6,59.0,88,30.27,6.2,North,6.9,-,N/A,,Mostly Cloudy,360,2013-10-14 13:00:00
8:00 AM,64.4,59.0,83,30.27,6.2,North,9.2,-,N/A,,Scattered Clouds,360,2013-10-14 14:00:00
9:00 AM,69.8,59.0,68,30.30,6.2,NNW,6.9,-,N/A,,Partly Cloudy,340,2013-10-14 15:00:00
10:00 AM,69.8,55.4,60,30.30,6.2,NNW,9.2,-,N/A,,Mostly Cloudy,340,2013-10-14 16:00:00
11:00 AM,69.8,55.4,60,30.27,6.2,North,11.5,-,N/A,,Mostly Cloudy,360,2013-10-14 17:00:00
12:00 PM,72,57,50,29.91,25,North,13.8,,,,Overcast,0,2013-10-14 18:00:00
12:00 PM,71.6,57.2,60,30.24,6.2,North,13.8,-,N/A,,Mostly Cloudy,360,2013-10-14 18:00:00
1:00 PM,71.6,57.2,60,30.24,6.2,NNE,13.8,-,N/A,,Mostly Cloudy,20,2013-10-14 19:00:00
2:00 PM,73.4,57.2,57,30.18,6.2,North,11.5,-,N/A,,Scattered Clouds,10,2013-10-14 20:00:00
3:00 PM,73.4,57.2,57,30.18,6.2,NNE,11.5,-,N/A,,Scattered Clouds,20,2013-10-14 21:00:00
4:00 PM,73.4,59.0,61,30.15,6.2,North,13.8,-,N/A,,Scattered Clouds,360,2013-10-14 22:00:00
5:00 PM,69.8,59.0,68,30.18,6.2,NNE,11.5,-,N/A,,Scattered Clouds,20,2013-10-14 23:00:00
5:17 PM,-9999,-9999,N/A,-9999,6.2,North,13.8,-,N/A,,Partly Cloudy,360,2013-10-14 23:17:00
6:00 PM,69,60,67,29.91,25,North,13.8,,,,Overcast,0,2013-10-15 00:00:00
6:00 PM,69.8,60.8,73,30.21,6.2,North,13.8,-,N/A,,Scattered Clouds,360,2013-10-15 00:00:00
7:00 PM,66.2,62.6,88,30.24,6.2,NNE,11.5,-,N/A,,Mostly Cloudy,30,2013-10-15 01:00:00
8:00 PM,66.2,60.8,83,30.27,6.2,North,11.5,-,N/A,,Mostly Cloudy,360,2013-10-15 02:00:00
9:00 PM,64.4,60.8,88,30.27,6.2,North,9.2,-,N/A,,Mostly Cloudy,360,2013-10-15 03:00:00
10:00 PM,64.4,60.8,88,30.27,6.2,NNE,9.2,-,N/A,,Mostly Cloudy,30,2013-10-15 04:00:00
11:00 PM,64.4,62.6,94,30.27,6.2,NNE,6.9,-,N/A,,Light Drizzle,30,2013-10-15 05:00:00